Location: Ajisawe
(8.4333°N, 4.3833°E)
Time: 14:39:58
(UTC+00:00)

NOSS 3-3 (C) - Pass Details

Date: 07 June 2020
Orbit: 832 x 1380 km, 63.4° (Epoch: 06 July)

Event Time Altitude Azimuth Distance (km) Brightness Sun altitude
Exits shadow 03:16:20 41° 333° (NNW) 1,195 4.4 -28.9°
Drops below altitude 10° 03:20:35 10° 9° (N) 2,516 6.6 -28.0°
Sets 03:23:14 0° 15° (NNE) 3,509 7.6 -27.4°
